Wind_Speed
1 7 8 8 9 10 8 9 11 11 11 13 16 16 16 17 17 17 16 16 18 17 14 15 15 16 15 16 16 17 16 18 17 18 18 18 16 16 16 18 18 16 17
3 8 7 7 7 9 9 9 10 11 11 12 15 16 17 16 15 16 15 15 16 15 14 14 15 15 15 16 16 16 15 15 17 18 17 17 16 15 15 16 16 15 16
8 8 6 6 6 7 9 10 10 11 12 13 14 14 14 15 14 14 15 15 15 15 14 13 13 13 14 14 14 13 14 15 16 17 15 14 14 15 14 15 13 13 13
8 7 5 5 5 6 7 10 11 11 12 12 14 15 15 15 14 14 14 14 16 15 15 14 14 14 13 13 14 14 14 14 16 16 12 13 13 15 16 16 18 18 20
7 5 4 4 5 5 8 9 12 12 12 13 13 15 16 16 16 14 14 16 15 15 16 16 15 14 14 15 14 13 14 14 14 13 12 12 15 16 16 15 15 16 16
6 4 1 3 8 9 8 9 10 13 13 14 14 14 15 18 18 16 16 17 16 15 14 17 16 14 16 15 15 13 12 12 13 11 10 15 17 15 14 13 13 13 13
5 6 4 2 3 8 11 10 12 12 15 15 15 16 16 16 17 17 17 18 18 17 15 15 15 17 18 17 15 13 11 11 14 12 20 20 16 13 12 11 11 11 11
4 4 4 2 2 4 7 12 12 14 13 16 16 16 17 16 15 16 16 18 20 19 18 17 17 19 20 16 15 12 11 11 17 19 20 16 14 11 10 10 8 9 10
8 8 7 5 4 3 7 11 14 15 15 15 17 18 17 17 17 16 17 19 21 21 19 19 20 21 20 18 14 13 12 13 18 18 17 14 10 10 10 9 9 11 11
12 13 11 9 8 6 6 9 12 15 17 16 16 18 19 17 17 17 18 19 22 23 21 20 23 21 20 19 17 14 17 16 14 14 11 9 8 10 10 10 11 12 13
12 12 12 12 12 11 8 8 9 12 16 18 17 17 19 20 19 18 20 20 23 24 24 20 23 22 21 19 19 18 20 18 15 13 11 9 8 8 11 12 11 13 15
12 11 11 11 12 13 13 10 10 10 13 16 20 20 20 21 22 21 21 21 23 26 25 22 21 23 22 19 20 21 22 19 16 13 10 9 8 11 11 13 14 14 15
11 12 10 10 11 13 15 15 12 11 11 14 16 20 22 22 22 23 23 22 22 28 27 24 21 24 25 23 23 24 23 20 16 13 14 11 9 13 14 12 15 15 14
11 11 9 10 12 12 14 17 16 13 11 12 14 16 20 23 24 25 26 25 25 31 29 29 26 26 27 27 26 26 24 21 18 14 15 12 11 15 17 13 14 15 16
13 13 11 12 12 13 14 16 18 15 12 11 14 14 15 20 23 25 27 27 29 36 36 31 29 28 29 28 28 27 25 23 21 19 16 15 16 16 17 16 14 14 16
13 14 12 13 13 13 13 15 17 16 13 10 9 12 13 16 19 24 27 29 31 37 36 34 33 32 32 31 30 28 26 24 23 21 18 15 19 17 19 19 15 14 14
12 13 15 15 15 14 13 12 16 15 12 10 9 9 10 13 17 20 25 28 31 35 36 35 31 27 30 31 30 30 28 25 25 24 21 17 21 17 18 18 19 16 13
13 14 16 14 15 14 13 12 14 15 14 12 10 8 9 11 12 19 20 25 30 32 37 35 34 30 28 31 26 27 27 27 25 26 22 18 21 19 19 17 20 16 13
14 14 15 15 15 15 14 13 14 15 15 15 13 13 12 14 14 13 18 19 17 29 34 37 29 36 32 26 27 24 25 29 28 27 23 20 20 22 20 20 19 15 15
12 14 15 15 16 15 13 13 15 16 17 17 17 17 18 20 21 20 20 19 17 19 23 32 37 28 31 31 20 24 25 27 29 28 24 21 21 23 21 19 18 16 16
12 12 13 15 14 14 12 10 14 18 18 17 18 18 20 22 23 25 25 24 24 24 23 25 32 32 29 34 24 13 16 23 26 28 27 26 25 22 21 20 17 17 18
12 12 14 15 14 13 12 12 11 9 13 18 18 18 20 21 24 25 25 25 22 22 24 26 28 28 22 35 21 13 3 4 14 26 25 25 25 23 21 19 19 20 19
6 10 13 13 12 11 11 13 12 12 13 19 22 23 24 22 23 27 27 23 22 24 25 28 29 34 21 30 34 15 3 4 9 16 23 25 25 25 23 22 22 22 20
5 8 9 10 11 13 11 14 16 14 13 18 21 23 26 24 24 27 29 29 28 27 27 29 37 39 30 28 24 33 25 10 7 3 11 21 24 25 25 27 26 24 24
7 7 6 8 11 13 14 17 19 19 19 21 21 23 25 26 26 26 27 29 30 31 30 30 35 38 40 36 33 27 20 16 22 6 3 6 20 25 26 26 26 26 25
7 7 7 9 12 13 15 19 22 23 19 19 21 23 24 24 26 25 27 25 27 31 32 35 36 38 37 37 36 33 25 12 17 9 7 9 15 17 27 28 28 28 26
Wind_Direction
125 169 177 171 168 170 169 158 165 160 153 153 164 165 157 150 144 142 140 133 131 130 130 134 137 133 130 126 122 123 122 126 126 126 122 117 116 113 112 116 107 105 102
120 151 165 174 180 179 190 183 175 173 165 162 164 166 163 153 153 151 148 144 138 137 137 125 132 130 127 121 123 129 135 131 135 131 128 124 119 116 116 116 114 118 116
145 148 143 161 185 195 190 200 196 187 183 172 173 173 168 164 160 161 154 153 149 147 144 143 135 130 127 128 129 139 133 129 133 136 128 125 121 118 119 116 123 127 130
141 153 156 155 178 208 203 204 205 199 192 194 184 182 172 166 170 169 163 161 158 157 156 155 147 146 146 141 138 138 141 136 137 139 125 124 127 126 115 111 97 108 91
131 150 178 205 217 222 223 215 213 210 204 201 197 194 184 178 174 174 173 167 169 169 166 165 160 162 150 146 138 140 145 145 143 140 133 134 139 130 117 116 111 108 101
122 121 122 278 256 235 235 232 220 220 214 209 205 198 198 190 185 184 185 179 177 174 165 158 162 159 153 146 142 140 148 154 154 143 142 140 124 118 114 114 114 114 113
147 150 142 78 337 248 242 238 232 228 222 220 213 204 201 201 192 192 189 185 184 181 178 169 163 160 157 156 152 142 145 150 157 139 137 129 131 121 118 118 118 119 123
192 202 209 205 245 281 247 248 247 234 234 228 222 215 210 206 204 199 197 193 190 191 189 177 169 166 164 162 161 154 146 142 142 135 130 131 130 131 125 125 126 126 130
241 246 241 247 221 238 279 256 244 241 236 236 228 223 220 215 212 210 204 201 197 195 190 178 180 177 171 169 170 170 160 149 146 140 138 134 136 132 131 129 124 131 134
249 248 250 250 248 247 265 276 251 243 238 237 235 231 227 226 223 218 217 213 207 203 194 182 183 184 182 177 173 177 173 167 162 156 156 149 145 136 137 135 130 139 140
249 253 255 259 256 256 253 265 266 245 239 238 236 234 234 232 229 229 225 218 213 209 202 190 186 187 188 182 176 175 175 177 175 165 161 154 148 146 150 146 148 144 145
256 259 266 266 263 257 255 256 264 258 244 240 236 234 232 234 232 230 229 226 221 216 207 197 188 190 187 183 179 174 177 181 183 184 174 168 165 159 161 152 153 148 149
261 267 264 271 275 266 257 253 254 258 252 243 240 235 234 235 234 230 232 228 219 209 204 200 190 193 195 191 180 179 181 184 188 185 180 170 166 171 156 144 151 156 157
263 261 264 277 287 278 261 251 249 251 252 250 241 237 234 232 233 233 230 226 218 206 201 200 197 198 200 197 192 185 186 187 188 188 187 172 177 171 154 156 147 149 149
260 262 269 281 288 289 270 252 245 248 251 250 255 242 245 240 234 232 230 227 219 210 205 203 203 199 201 197 195 192 189 189 186 185 186 176 181 182 159 163 149 141 141
268 268 275 283 287 290 279 255 242 243 248 256 266 253 242 246 243 240 233 227 221 215 212 209 208 202 201 198 195 194 192 190 187 181 181 177 191 182 172 167 163 154 152
264 275 281 286 286 289 285 258 237 237 240 247 258 252 246 243 233 244 241 233 225 219 216 211 206 200 200 197 198 195 193 190 187 181 178 188 191 187 178 166 162 162 157
260 272 283 285 284 283 281 262 235 233 236 240 238 236 242 243 236 233 226 224 230 220 218 212 201 198 201 196 194 195 191 191 185 184 180 182 190 191 181 183 168 166 178
261 276 283 282 277 277 274 263 244 235 233 234 238 232 232 239 235 229 233 225 224 218 213 211 200 191 196 194 191 192 194 191 185 185 184 184 192 190 177 180 170 184 192
261 282 290 286 279 275 266 251 242 241 238 233 235 242 244 241 243 246 245 237 233 234 211 205 198 190 192 186 190 188 195 196 188 187 186 187 185 179 177 175 169 171 186
268 278 292 292 280 269 256 237 237 240 243 251 253 252 250 251 248 247 248 249 239 235 235 213 191 191 187 184 160 173 181 191 194 189 193 184 183 188 183 186 184 186 191
270 281 295 290 275 260 242 231 230 239 253 261 272 270 261 256 250 246 245 243 236 231 220 219 190 170 184 179 168 171 166 149 212 190 191 190 187 189 190 194 201 201 198
267 297 298 288 268 251 243 235 230 237 252 262 265 270 262 259 259 246 240 238 236 229 219 210 198 183 180 176 187 171 155 189 153 194 191 191 194 195 202 200 198 196 197
290 303 300 288 256 254 256 238 235 238 244 251 269 271 273 268 256 253 243 236 234 232 225 215 205 198 187 184 186 184 196 159 177 155 199 191 191 197 200 194 198 201 200
305 303 300 289 257 254 256 247 241 243 248 269 265 261 269 263 260 251 247 239 234 228 226 221 206 198 195 188 185 184 198 183 181 158 158 170 195 199 201 198 203 203 205
323 310 305 297 282 268 263 254 243 244 252 260 260 256 251 251 257 249 246 237 240 234 226 225 215 205 194 194 186 186 180 174 173 159 173 179 185 205 206 207 208 210 211
Height
800 801 802 804 805 806 808 809 811 812 814 816 816 819 820 822 824 825 827 829 830 832 833 834 835 836 836 837 839 840 841 843 844 844 845 845 846 847 847 848 849 850 851
800 801 802 804 805 807 808 809 811 813 815 816 817 819 821 822 825 826 827 830 831 833 834 835 836 837 838 839 840 841 842 844 845 846 846 847 848 849 849 850 851 852 853
800 802 803 804 805 807 809 810 812 813 814 816 817 819 822 823 825 827 828 830 831 833 835 836 837 838 840 841 842 843 844 845 846 848 848 850 852 851 850 852 853 854 855
801 803 804 805 806 807 809 810 811 814 814 816 817 818 820 823 825 827 828 830 832 833 835 837 838 839 840 841 843 844 846 847 848 849 851 852 853 853 853 854 855 856 855
802 803 804 805 806 807 808 810 811 813 814 815 817 818 820 822 824 826 828 830 832 834 835 837 838 840 841 842 844 845 847 848 850 851 852 853 854 855 855 856 856 857 858
803 803 804 805 805 806 807 808 810 811 813 814 816 818 820 822 823 824 827 829 832 834 835 837 839 840 842 844 845 846 848 849 850 851 852 854 855 856 857 857 857 858 860
803 804 804 805 805 805 806 807 809 810 811 813 815 816 819 820 822 824 826 829 831 833 835 837 839 840 842 844 845 847 848 849 850 852 853 855 856 857 858 858 859 859 861
803 803 804 804 804 804 805 806 807 808 809 811 813 815 817 819 821 824 826 829 830 832 834 836 839 840 842 844 846 848 849 850 851 853 854 856 856 857 859 859 859 860 861
801 802 803 803 803 804 804 804 804 806 807 809 811 813 815 818 820 822 824 826 829 831 833 835 838 840 840 843 846 848 850 852 852 854 856 856 857 858 859 859 859 861 862
800 800 801 801 802 802 802 801 802 803 804 806 809 811 814 816 818 821 822 825 827 830 831 834 837 839 840 841 844 847 850 853 854 855 856 857 858 858 859 860 860 861 863
797 797 798 798 799 799 800 800 800 800 802 804 806 808 810 813 815 817 819 822 825 828 830 832 835 838 840 841 842 845 849 852 854 856 857 858 859 859 860 860 862 862 863
794 795 795 795 796 796 797 798 798 798 799 800 802 804 807 809 811 814 816 819 822 824 828 831 833 836 839 841 842 844 847 850 853 855 857 858 859 859 860 861 861 863 864
791 791 792 792 793 793 794 794 795 795 796 797 798 800 803 805 807 810 813 815 818 821 825 828 831 833 835 838 840 842 845 848 851 854 856 858 859 860 860 861 862 863 864
788 788 789 789 789 790 790 790 791 792 793 794 795 797 798 800 803 805 808 811 814 817 820 823 826 829 831 835 838 840 842 845 848 852 854 856 859 859 860 862 864 864 865
784 785 786 786 786 786 786 787 788 789 790 791 792 793 795 797 798 801 804 806 809 812 815 818 822 825 828 831 835 838 840 843 846 849 853 855 858 859 860 862 865 865 866
781 782 783 783 783 783 783 783 785 786 788 789 789 790 793 794 795 797 800 802 804 807 811 813 816 820 824 828 832 835 838 841 844 847 851 854 856 858 860 860 866 867 868
778 778 779 779 780 780 779 780 781 783 785 786 787 788 790 791 793 794 795 798 801 803 806 809 813 817 821 825 830 833 836 839 842 845 848 852 854 856 860 861 864 868 869
775 776 776 776 776 776 776 777 778 780 782 783 785 786 788 789 790 791 792 793 796 799 801 805 808 812 820 822 827 832 834 837 840 843 845 848 852 855 858 861 863 867 870
774 773 772 773 773 773 774 774 776 777 779 780 781 783 786 787 788 789 790 790 793 794 796 798 805 804 814 820 825 830 834 834 837 840 842 845 849 853 856 860 860 865 868
770 771 770 769 769 770 770 771 772 773 774 776 778 779 781 783 785 786 787 788 790 792 791 794 797 804 809 811 825 828 833 836 836 838 840 842 846 851 854 858 860 864 867
767 767 768 767 766 766 766 768 769 769 770 772 773 775 776 777 779 780 782 784 785 788 789 792 791 800 804 807 819 830 830 834 837 835 838 840 843 849 852 857 859 863 867
764 764 764 764 763 762 764 765 767 767 767 768 768 769 770 771 773 774 776 777 780 781 785 787 789 789 798 803 806 825 829 833 836 833 836 838 841 845 850 854 858 862 865
761 762 760 760 760 760 761 762 764 765 765 765 764 764 764 765 767 768 769 772 774 776 778 780 786 783 794 793 802 809 823 823 829 833 833 835 838 842 847 851 855 860 864
756 758 758 757 757 758 758 759 760 761 761 760 760 759 759 759 760 761 763 765 768 770 773 775 778 782 785 792 801 799 808 813 817 830 831 833 835 840 844 848 852 857 861
754 753 754 755 755 755 755 755 756 756 756 756 756 754 754 753 754 755 757 759 760 763 765 769 771 774 779 783 788 793 803 806 811 817 827 830 833 837 841 845 849 853 857
752 751 750 751 751 751 751 750 750 751 752 752 750 749 747 747 748 749 752 753 754 756 758 760 764 767 769 775 780 785 791 798 803 811 818 827 830 834 838 842 845 848 853